Location: Newark
(48.6676°N, 6.1917°E)
Time: 00:26:45
(UTC+00:00)

N. Korean satellite - Pass Details

Date: 07 December 2019
Orbit: 454 x 507 km, 97.2° (Epoch: 21 January)

Event Time Altitude Azimuth Distance (km) Brightness Sun altitude
Rises 06:15:47 0° 4° (N) 2,575 10.0 -9.1°
Reaches altitude 10° 06:18:02 10° 353° (N) 1,678 9.0 -8.8°
Maximum altitude 06:21:13 30° 291° (WNW) 889 7.3 -8.3°
Drops below altitude 10° 06:24:19 10° 229° (SW) 1,638 9.0 -7.8°
Sets 06:26:30 0° 219° (SW) 2,501 10.0 -7.5°
